Showing default

OPS 9347 (IDSCS 25), 3290

Orbit data source: Space-Track

OPS 9347 (IDSCS 25), 3290 is a payload satellite owned by SAMSO (US) in GEO that was launched on Thu, 13 Jun 1968 UTC via a TITAN IIIC launch vehicle from the Air Force Eastern Test Range (AFETR). Payload-class satellites include a variety of spacecraft equipped with specific instruments for various scientific and technological missions. These include communications satellites like Starlink; space stations such as the ISS; scientific satellites like the Hubble; Earth observation satellites from companies like Planet Labs, Umbra, and HawkEye 360; GPS; miniature CubeSats for education and research; and military/defense satellites.

Loading next visibility...
Identifier
3290, 1968-050G
Orbit
GEO
Country
Flag of USUS
Related business
Manufacturer
Philco-Ford
Mission
Non-operational spacecraft
Bus & Motor
IDCSP, Unknown motor
Mass
45 kg wet, 45 kg dry
Launch date (UTC)
1968-06-13 (58 years ago)
Launch vehicle
TITAN IIIC
Launch site
Air Force Eastern Test Range (AFETR)
Object type
Payload
Rocket body
Debris
Shape & HBR
Unknown
Radar Cross Section
Medium (>0.1 m² and <1 m²)

Expand to show TLE details & history
Last TLE update: 17 hours ago

TLE from 17 hours ago
0 OPS 9347 (IDSCS 25)
1 03290U 68050G   26073.67080957 -.00000046  00000-0  00000-0 0  9994
2 03290   6.7738  54.9818 0059161 135.9774  18.6536  1.07034513 46126
Epoch: 2026-03-14T16:05Z
TLE epoch observation values (Epoch: 2026-03-14T16:05:57.946Z)
Latitude
2.88686°
Longitude
156.21976°
Altitude
33,763.868 km
Speed
3.16 km/s
True Right ascension
13h 59m 59s
True Declination
2° 53' 02"
Sunlit
Object was in daylight at epoch
Visualization orbit readout
Latitude
Unknown
Longitude
Unknown
Altitude
Unknown
Speed
Unknown
Apparent Right ascension
Unknown
Apparent Declination
Unknown
Sunlit
N/A
Visualization observer readout
Local Sidereal Time
13:57:44
Azimuth
Unknown
Elevation
Unknown
Doppler factor
Unknown
Orbital elements
Apogee altitude
34,231.222 km
Perigee altitude
33,753.55 km
Semi-major axis
40,370.523 km
Eccentricity
0.00592
Inclination
6.7738°
RAAN
54.9818°
Arg. of periapsis
135.9774°
True anomaly
18.87196°
Mean anomaly
18.6536°
Eccentric anomaly
18.76263°
Mean motion
0.26758 °/min
Orbital period
1,345.41 mins
BSTAR
0
Loading maneuver chart data...
Computing Atmospheric mass density...
Loading historical data...
Loading historical data...
Loading historical data...
Loading historical data...
Loading historical data...
Loading historical data...
Loading historical data...

Documentation

Showing up to 5 results
|